Terminal Aerodrome Forecast
Issued by NWS Knoxville/Tri Cities, TN

Home | Current Version | Previous Version | Text Only | Print | Product List | Glossary On
Versions: 1 2 3 4 5 6 7 8 9 10 11 12 13 14 15 16 17 18 19 20 21 22 23 24 25 26 27 28 29 30 31 32 33 34
000
FTUS44 KMRX 271601 AAB
TAFTYS
TAF AMD
KTYS 271601Z 2716/2812 30010KT P6SM BKN020
      TEMPO 2716/2717 4SM -RA BR BKN015
     FM271700 31010KT P6SM BKN040
     FM280000 34006KT P6SM BKN035=

USA.gov is the U.S. government's official web portal to all federal, state and local government web resources and services.